Date String (YYYY-MM-DD hh:mm:ss) UTC,Instrument flags,Ambient pressure (hPa),Sample flow (lpm),Bypass flow (lpm),Sample temperature (°C),Ambient temperature (°C),ASC tube jacket temperature (°C),LED temperature (°C),Box temperature (°C),Sample RH (%),Span deviation,Mass concentration (μg/m³),Mass concentration (μg/m³),Mass concentration (μg/m³)
DateTimeUTC,F1_M11,P_M11,Q1_M11,Q2_M11,T1_M11,T2_M11,T3_M11,T4_M11,T5_M11,U1_M11,ZSPAN_M11,X0_M11,X2_M11,X1_M11
2022-06-24 09:00:00,,0824.6,4.99,0.00,29.4,27.6,00.0,38.2,31.2,17.1,0000.0,0008.88,0004.05,0003.55
2022-06-24 09:01:00,,0824.7,5.01,0.00,29.4,27.7,00.0,38.2,31.2,17.1,0000.0,0008.91,0004.04,0003.58
2022-06-24 09:02:00,,0824.7,5.01,0.00,29.4,27.8,00.0,38.2,31.2,17.1,0000.0,0008.94,0004.08,0003.62
2022-06-24 09:03:00,,0824.6,4.99,0.00,29.4,27.9,00.0,38.2,31.2,17.1,0000.0,0009.04,0004.14,0003.65
2022-06-24 09:04:00,,0824.6,5.00,0.00,29.4,28.0,00.0,38.2,31.3,17.0,0000.0,0010.06,0004.23,0003.71
2022-06-24 09:05:00,,0824.7,5.01,0.00,29.4,28.1,00.0,38.2,31.3,16.9,0000.0,0011.09,0004.33,0003.76
2022-06-24 09:06:00,,0824.8,5.00,0.00,29.4,28.2,00.0,38.3,31.3,17.0,0000.0,0011.25,0004.41,0003.81
2022-06-24 09:07:00,,0824.7,5.00,0.00,29.4,28.3,00.0,38.3,31.3,17.1,0000.0,0010.56,0004.39,0003.82
2022-06-24 09:08:00,,0824.7,5.00,0.00,29.5,28.4,00.0,38.3,31.4,16.9,0000.0,0011.16,0004.39,0003.82
2022-06-24 09:09:00,,0824.7,5.00,0.00,29.5,28.4,00.0,38.3,31.4,16.8,0000.0,0011.71,0004.41,0003.82
2022-06-24 09:10:00,,0824.7,4.99,0.00,29.5,28.5,00.0,38.3,31.4,16.9,0000.0,0011.97,0004.43,0003.82
2022-06-24 09:11:00,,0824.6,5.00,0.00,29.5,28.5,00.0,38.3,31.4,16.8,0000.0,0012.05,0004.45,0003.83
2022-06-24 09:12:00,,0824.7,5.01,0.00,29.6,28.6,00.0,38.3,31.5,16.9,0000.0,0012.07,0004.47,0003.84
2022-06-24 09:13:00,,0824.7,4.99,0.00,29.6,28.6,00.0,38.3,31.5,16.9,0000.0,0012.69,0004.49,0003.86
2022-06-24 09:14:00,,0824.7,5.00,0.00,29.6,28.6,00.0,38.4,31.5,17.0,0000.0,0012.92,0004.48,0003.87
2022-06-24 09:15:00,,0824.7,5.00,0.00,29.6,28.7,00.0,38.4,31.5,16.8,0000.0,0012.03,0004.47,0003.87
2022-06-24 09:16:00,,0824.6,5.00,0.00,29.6,28.7,00.0,38.4,31.6,16.7,0000.0,0011.08,0004.46,0003.87
2022-06-24 09:17:00,,0824.6,4.99,0.00,29.7,28.7,00.0,38.4,31.6,16.7,0000.0,0011.04,0004.43,0003.86
2022-06-24 09:18:00,,0824.7,5.00,0.00,29.7,28.7,00.0,38.4,31.6,16.6,0000.0,0010.93,0004.47,0003.87
2022-06-24 09:19:00,,0824.5,5.00,0.00,29.7,28.8,00.0,38.5,31.7,16.5,0000.0,0010.46,0004.52,0003.88
2022-06-24 09:20:00,,0824.5,4.99,0.00,29.7,28.6,00.0,38.5,31.6,16.5,0000.0,0009.95,0004.53,0003.89
2022-06-24 09:21:00,,0824.9,5.00,0.00,29.7,27.8,00.0,38.4,31.4,16.4,0000.0,0009.68,0004.51,0003.88
2022-06-24 09:22:00,,0824.5,5.00,0.00,29.6,27.3,00.0,38.3,31.2,16.5,0000.0,0008.84,0004.53,0003.88
2022-06-24 09:23:00,,0824.4,5.00,0.00,29.5,27.3,00.0,38.3,31.2,16.7,0000.0,0008.72,0004.55,0003.89
2022-06-24 09:24:00,,0824.6,5.00,0.00,29.5,27.3,00.0,38.3,31.1,16.8,0000.0,0008.90,0004.56,0003.88
2022-06-24 09:25:00,,0824.4,5.00,0.00,29.4,27.4,00.0,38.3,31.1,16.9,0000.0,0009.36,0004.58,0003.88
2022-06-24 09:26:00,,0824.4,5.00,0.00,29.4,27.6,00.0,38.3,31.2,17.0,0000.0,0009.35,0004.55,0003.86
2022-06-24 09:27:00,,0824.6,5.00,0.00,29.4,27.7,00.0,38.3,31.2,16.9,0000.0,0009.35,0004.55,0003.83
2022-06-24 09:28:00,,0824.5,5.01,0.00,29.4,27.8,00.0,38.3,31.2,17.2,0000.0,0009.21,0004.47,0003.79
2022-06-24 09:29:00,,0824.7,5.00,0.00,29.4,27.9,00.0,38.3,31.2,16.9,0000.0,0009.14,0004.40,0003.72
2022-06-24 09:30:00,,0824.6,5.00,0.00,29.4,28.0,00.0,38.3,31.3,17.3,0000.0,0008.98,0004.28,0003.64
2022-06-24 09:31:00,,0824.4,5.01,0.00,29.4,28.1,00.0,38.3,31.3,17.4,0000.0,0008.97,0004.17,0003.55
2022-06-24 09:32:00,,0824.6,5.00,0.00,29.4,28.2,00.0,38.3,31.3,17.4,0000.0,0008.91,0004.07,0003.44
2022-06-24 09:33:00,,0824.6,5.01,0.00,29.5,28.3,00.0,38.3,31.4,17.3,0000.0,0008.65,0003.92,0003.33
2022-06-24 09:34:00,,0824.8,5.01,0.00,29.5,28.3,00.0,38.3,31.4,17.3,0000.0,0008.67,0003.78,0003.23
2022-06-24 09:35:00,,0824.6,5.00,0.00,29.5,28.4,00.0,38.3,31.4,17.1,0000.0,0008.36,0003.68,0003.15
2022-06-24 09:36:00,,0824.4,5.00,0.00,29.5,28.4,00.0,38.3,31.4,17.0,0000.0,0007.79,0003.60,0003.07
2022-06-24 09:37:00,,0824.5,4.99,0.00,29.5,28.5,00.0,38.3,31.4,17.1,0000.0,0007.69,0003.53,0002.96
2022-06-24 09:38:00,,0824.6,4.99,0.00,29.6,28.5,00.0,38.4,31.5,17.1,0000.0,0007.61,0003.40,0002.82
2022-06-24 09:39:00,,0824.5,5.01,0.00,29.6,28.6,00.0,38.4,31.5,17.1,0000.0,0007.65,0003.32,0002.68
2022-06-24 09:40:00,,0824.4,5.00,0.00,29.6,28.6,00.0,38.4,31.5,17.0,0000.0,0007.60,0003.26,0002.60
2022-06-24 09:41:00,,0824.4,5.00,0.00,29.6,28.6,00.0,38.4,31.5,16.9,0000.0,0007.62,0003.20,0002.50
2022-06-24 09:42:00,,0824.4,5.01,0.00,29.7,28.7,00.0,38.4,31.6,16.9,0000.0,0007.43,0003.15,0002.44
2022-06-24 09:43:00,,0824.4,5.01,0.00,29.7,28.7,00.0,38.4,31.6,17.0,0000.0,0007.19,0003.10,0002.39
2022-06-24 09:44:00,,0824.4,5.00,0.00,29.7,28.7,00.0,38.4,31.6,17.0,0000.0,0007.22,0003.08,0002.35
2022-06-24 09:45:00,,0824.5,5.00,0.00,29.7,28.8,00.0,38.5,31.6,17.0,0000.0,0007.13,0003.07,0002.31
2022-06-24 09:46:00,,0824.4,5.00,0.00,29.7,28.8,00.0,38.5,31.7,17.0,0000.0,0005.92,0002.97,0002.26
2022-06-24 09:47:00,,0824.4,4.99,0.00,29.8,28.8,00.0,38.5,31.7,17.0,0000.0,0006.30,0002.86,0002.18
2022-06-24 09:48:00,,0824.4,5.00,0.00,29.8,28.5,00.0,38.5,31.6,17.1,0000.0,0006.12,0002.73,0002.09
2022-06-24 09:49:00,,0824.4,5.00,0.00,29.7,27.8,00.0,38.4,31.4,17.1,0000.0,0005.76,0002.63,0002.05
2022-06-24 09:50:00,,0824.6,5.00,0.00,29.6,27.5,00.0,38.4,31.3,17.2,0000.0,0005.51,0002.62,0002.03
2022-06-24 09:51:00,,0824.7,5.00,0.00,29.6,27.4,00.0,38.4,31.2,17.3,0000.0,0005.22,0002.56,0001.98
2022-06-24 09:52:00,,0824.7,5.00,0.00,29.5,27.5,00.0,38.4,31.2,17.3,0000.0,0005.12,0002.57,0001.94
2022-06-24 09:53:00,,0824.7,5.00,0.00,29.5,27.6,00.0,38.4,31.2,17.4,0000.0,0005.65,0002.53,0001.92
2022-06-24 09:54:00,,0824.5,5.01,0.00,29.5,27.7,00.0,38.3,31.2,17.4,0000.0,0005.71,0002.53,0001.91
2022-06-24 09:55:00,,0824.6,5.00,0.00,29.5,27.8,00.0,38.3,31.3,17.4,0000.0,0005.70,0002.48,0001.90
2022-06-24 09:56:00,,0824.6,4.99,0.00,29.5,28.0,00.0,38.3,31.3,17.4,0000.0,0005.65,0002.45,0001.90
2022-06-24 09:57:00,,0824.6,5.00,0.00,29.5,28.1,00.0,38.3,31.3,17.3,0000.0,0005.69,0002.46,0001.91
2022-06-24 09:58:00,,0824.6,5.00,0.00,29.5,28.2,00.0,38.3,31.3,17.3,0000.0,0004.58,0002.43,0001.92
2022-06-24 09:59:00,,0824.6,5.00,0.00,29.5,28.2,00.0,38.3,31.4,17.3,0000.0,0004.96,0002.46,0001.93
